Location: Northam
(31.6525°S, 116.6655°E)
Time: 16:06:54
(UTC+08:00)

Hubble Space Telescope - Pass Details

Date: 18 May 2021
Orbit: 535 x 539 km, 28.5° (Epoch: 17 June)

Event Time Altitude Azimuth Distance (km) Brightness Sun altitude
Rises 19:06:42 0° 285° (WNW) 2,687 5.9 -21.9°
Reaches altitude 10° 19:09:00 10° 290° (WNW) 1,797 4.5 -22.4°
Enters shadow 19:13:00 51° 3° (N) 684 1.2 -23.3°
